ETD142 LSZH-OMAA

Flight info

Callsign ETD142
Flight time N/A
Altitude 33000
Route DEGES Z2 TUNUM Z204 GEDSO DCT VEKEN DCT DEGUM DCT MAGAM DCT TIVNU DCT MITNO DCT VABEK UL603 OLOTA DCT DISOR DCT MES UL609 RDS DCT VANZA DCT LAKTO L560 SILKA M872 BDB Y214 RAPMA DCT KUVSO DCT KATIT DCT DANUX DCT TANSU G783 VAVIM P899 ROVOS
Aircraft A21N/M-SDE3FGHIRWY/LB1

Departure

Time N/A
Airport Zürich Airport (LSZH)

Arrival

Time 2026-04-27 03:42
Airport Zayed International Airport (OMAA)
Time Latitude Longitude Altitude Speed Heading
2026-04-27 03:26 24.00189 55.52912 19116 ft 437 kts 12°
2026-04-27 03:26 24.03095 55.53775 18448 ft 437 kts 12°
2026-04-27 03:26 24.06037 55.54653 17773 ft 436 kts 13°
2026-04-27 03:27 24.08966 55.55529 17096 ft 436 kts 13°
2026-04-27 03:27 24.11885 55.56406 16452 ft 434 kts 13°
2026-04-27 03:27 24.14807 55.57283 15841 ft 431 kts 13°
2026-04-27 03:27 24.17700 55.58150 15240 ft 427 kts 13°
2026-04-27 03:28 24.20610 55.58689 14569 ft 421 kts 358°
2026-04-27 03:28 24.23427 55.58069 14004 ft 409 kts 335°
2026-04-27 03:28 24.25698 55.56347 13700 ft 393 kts 313°
2026-04-27 03:28 24.27209 55.53951 13373 ft 380 kts 294°
2026-04-27 03:29 24.27947 55.51200 13032 ft 370 kts 281°
2026-04-27 03:29 24.28414 55.48492 12790 ft 359 kts 281°
2026-04-27 03:29 24.28873 55.45862 12621 ft 345 kts 281°
2026-04-27 03:29 24.29339 55.43315 12423 ft 334 kts 282°
2026-04-27 03:30 24.29802 55.40862 12210 ft 323 kts 282°
2026-04-27 03:30 24.30251 55.38513 12036 ft 312 kts 282°
2026-04-27 03:30 24.30727 55.36255 11931 ft 299 kts 285°
2026-04-27 03:30 24.31342 55.34079 11597 ft 294 kts 289°
2026-04-27 03:31 24.31989 55.31973 11219 ft 292 kts 289°
2026-04-27 03:31 24.32637 55.29877 10847 ft 290 kts 289°
2026-04-27 03:31 24.33281 55.27793 10483 ft 287 kts 289°
2026-04-27 03:31 24.33910 55.25751 10123 ft 285 kts 289°
2026-04-27 03:32 24.34540 55.23697 9754 ft 283 kts 289°
2026-04-27 03:32 24.35167 55.21656 9392 ft 281 kts 289°
2026-04-27 03:32 24.35788 55.19630 9028 ft 280 kts 289°
2026-04-27 03:32 24.36403 55.17622 8673 ft 278 kts 289°
2026-04-27 03:33 24.37013 55.15621 8318 ft 276 kts 290°
2026-04-27 03:33 24.37614 55.13650 7965 ft 274 kts 290°
2026-04-27 03:33 24.38215 55.11680 7670 ft 269 kts 290°
2026-04-27 03:33 24.38803 55.09746 7475 ft 260 kts 290°
2026-04-27 03:34 24.39357 55.07927 7371 ft 248 kts 290°
2026-04-27 03:34 24.39904 55.06139 7078 ft 246 kts 291°
2026-04-27 03:34 24.40443 55.04382 6762 ft 244 kts 291°
2026-04-27 03:34 24.40984 55.02620 6451 ft 243 kts 291°
2026-04-27 03:35 24.41261 55.00787 6086 ft 250 kts 266°
2026-04-27 03:35 24.40588 54.99013 5852 ft 257 kts 235°
2026-04-27 03:35 24.39258 54.97673 5630 ft 262 kts 224°
2026-04-27 03:35 24.37854 54.96422 5325 ft 261 kts 224°
2026-04-27 03:36 24.36457 54.95159 5015 ft 259 kts 225°
2026-04-27 03:36 24.35150 54.93803 4701 ft 255 kts 232°
2026-04-27 03:36 24.33988 54.92333 4394 ft 252 kts 235°
2026-04-27 03:36 24.32881 54.90854 4089 ft 250 kts 236°
2026-04-27 03:37 24.31794 54.89395 3790 ft 249 kts 236°
2026-04-27 03:37 24.30695 54.87922 3489 ft 247 kts 236°
2026-04-27 03:37 24.29814 54.86363 3154 ft 239 kts 259°
2026-04-27 03:37 24.29783 54.84606 2981 ft 230 kts 291°
2026-04-27 03:38 24.30501 54.83057 2986 ft 221 kts 307°
2026-04-27 03:38 24.31408 54.81773 2965 ft 205 kts 311°
2026-04-27 03:38 24.32297 54.80600 2956 ft 198 kts 311°
2026-04-27 03:38 24.33163 54.79430 2806 ft 198 kts 310°
2026-04-27 03:39 24.34011 54.78251 2554 ft 196 kts 310°
2026-04-27 03:39 24.34834 54.77089 2393 ft 186 kts 309°
2026-04-27 03:39 24.35612 54.75984 2133 ft 178 kts 309°
2026-04-27 03:39 24.36332 54.74962 1890 ft 162 kts 309°
2026-04-27 03:40 24.36987 54.74032 1674 ft 147 kts 310°
2026-04-27 03:40 24.37604 54.73158 1478 ft 142 kts 309°
2026-04-27 03:40 24.38187 54.72336 1309 ft 142 kts 309°
2026-04-27 03:40 24.38797 54.71475 1135 ft 142 kts 309°
2026-04-27 03:41 24.39399 54.70626 962 ft 141 kts 309°
2026-04-27 03:41 24.40003 54.69773 784 ft 141 kts 309°
2026-04-27 03:41 24.40611 54.68916 601 ft 140 kts 309°
2026-04-27 03:41 24.41189 54.68100 454 ft 143 kts 308°
2026-04-27 03:42 24.41793 54.67235 256 ft 142 kts 309°
2026-04-27 03:42 24.42396 54.66395 93 ft 136 kts 308°
2026-04-27 03:42 24.42897 54.65694 91 ft 92 kts 307°
2026-04-27 03:42 24.43187 54.65285 91 ft 44 kts 308°
2026-04-27 03:43 24.43368 54.65033 91 ft 39 kts 308°
2026-04-27 03:43 24.43582 54.64883 91 ft 35 kts 338°
2026-04-27 03:43 24.43761 54.64785 91 ft 16 kts 314°
2026-04-27 03:43 24.43834 54.64689 91 ft 16 kts 325°
2026-04-27 03:44 24.43934 54.64722 91 ft 16 kts 38°
2026-04-27 03:44 24.44022 54.64797 91 ft 16 kts 38°
2026-04-27 03:44 24.44111 54.64872 91 ft 16 kts 38°
2026-04-27 03:44 24.44200 54.64947 91 ft 16 kts 38°
2026-04-27 03:45 24.44289 54.65022 91 ft 16 kts 38°
2026-04-27 03:45 24.44381 54.65089 91 ft 15 kts
2026-04-27 03:45 24.44464 54.65022 91 ft 15 kts 309°
2026-04-27 03:45 24.44531 54.64928 91 ft 15 kts 308°
2026-04-27 03:46 24.44597 54.64834 91 ft 15 kts 308°
2026-04-27 03:46 24.44663 54.64742 91 ft 15 kts 308°
2026-04-27 03:46 24.44732 54.64651 91 ft 15 kts 317°
2026-04-27 03:46 24.44750 54.64545 91 ft 15 kts 252°
2026-04-27 03:47 24.44725 54.64470 91 ft 9 kts 250°
2026-04-27 03:47 24.44717 54.64444 91 ft 0 kts 250°
2026-04-27 03:47 24.44715 54.64439 91 ft 0 kts 251°